• In Germany
  • List of Countries
  • For 7 days
  • Water Temperature
  • Satellite Maps
  • Weather Map
  • Weather Widgets
  • user-avatar
    Login

    Hourly Weather Shaki

    Today, 16 November, Friday

    Time Temperature Precipitation Wind Pressure Humidity
    00:00 +11°C° 0.2 mm 1 mps 737 mmHg 78%
    01:00 +11°C° 0.3 mm 1 mps 737 mmHg 78%
    02:00 +11°C° 0.3 mm 1 mps 737 mmHg 79%
    03:00 +11°C° 0 mm 1 mps 737 mmHg 79%
    04:00 +11°C° 0.2 mm 1 mps 737 mmHg 79%
    05:00 +11°C° 0.2 mm 1 mps 737 mmHg 78%
    06:00 +11°C° 0.2 mm 1 mps 738 mmHg 78%
    07:00 +11°C° 0.1 mm 1 mps 738 mmHg 77%
    08:00 +12°C° 0.1 mm 1 mps 738 mmHg 75%
    09:00 +12°C° 0.1 mm 1 mps 738 mmHg 74%
    10:00 +13°C° 0.1 mm 1 mps 738 mmHg 73%
    11:00 +13°C° 0.1 mm 1 mps 738 mmHg 71%
    12:00 +14°C° 0.1 mm 1 mps 738 mmHg 69%
    13:00 +13°C° 0 mm 1 mps 738 mmHg 70%
    14:00 +13°C° 0 mm 1 mps 738 mmHg 71%
    15:00 +13°C° 0 mm 1 mps 738 mmHg 71%
    16:00 +13°C° 0 mm 1 mps 738 mmHg 73%
    17:00 +12°C° 0 mm 1 mps 739 mmHg 76%
    18:00 +11°C° 0 mm 1 mps 739 mmHg 78%
    19:00 +11°C° 0 mm 1 mps 739 mmHg 76%
    20:00 +11°C° 0 mm 1 mps 740 mmHg 75%
    21:00 +11°C° 0 mm 1 mps 740 mmHg 73%
    22:00 +11°C° 0 mm 1 mps 740 mmHg 73%
    23:00 +11°C° 0 mm 1 mps 740 mmHg 72%

    Tomorrow, 17 November, Saturday

    Time Temperature Precipitation Wind Pressure Humidity
    00:00 +11°C° 0 mm 1 mps 740 mmHg 72%
    01:00 +11°C° 0 mm 1 mps 740 mmHg 71%
    02:00 +11°C° 0 mm 1 mps 740 mmHg 69%
    03:00 +11°C° 0 mm 1 mps 740 mmHg 68%
    04:00 +10°C° 0 mm 1 mps 740 mmHg 68%
    05:00 +10°C° 0 mm 1 mps 740 mmHg 68%
    06:00 +10°C° 0 mm 1 mps 740 mmHg 67%
    07:00 +11°C° 0 mm 1 mps 740 mmHg 64%
    08:00 +12°C° 0 mm 1 mps 740 mmHg 60%
    09:00 +14°C° 0 mm 1 mps 740 mmHg 56%
    10:00 +15°C° 0 mm 2 mps 740 mmHg 53%
    11:00 +14°C° 0 mm 3 mps 740 mmHg 49%
    12:00 +15°C° 0 mm 4 mps 739 mmHg 46%
    13:00 +15°C° 0 mm 4 mps 739 mmHg 44%
    14:00 +17°C° 0 mm 4 mps 739 mmHg 43%
    15:00 +17°C° 0 mm 4 mps 739 mmHg 41%
    16:00 +14°C° 0 mm 4 mps 739 mmHg 43%
    17:00 +13°C° 0 mm 4 mps 740 mmHg 46%
    18:00 +12°C° 0 mm 3 mps 740 mmHg 48%
    19:00 +11°C° 0 mm 3 mps 740 mmHg 46%
    20:00 +11°C° 0 mm 3 mps 740 mmHg 44%
    21:00 +11°C° 0 mm 3 mps 741 mmHg 42%
    22:00 +10°C° 0 mm 3 mps 741 mmHg 41%
    23:00 +10°C° 0 mm 3 mps 741 mmHg 40%

    Day after tomorrow, 18 November, Sunday

    Time Temperature Precipitation Wind Pressure Humidity
    00:00 +10°C° 0 mm 3 mps 741 mmHg 39%
    01:00 +9°C° 0 mm 3 mps 741 mmHg 39%
    02:00 +9°C° 0 mm 3 mps 741 mmHg 40%
    03:00 +9°C° 0 mm 3 mps 740 mmHg 40%
    04:00 +9°C° 0 mm 3 mps 740 mmHg 40%
    05:00 +8°C° 0 mm 2 mps 740 mmHg 41%
    06:00 +8°C° 0 mm 2 mps 740 mmHg 42%
    07:00 +9°C° 0 mm 2 mps 740 mmHg 40%
    08:00 +10°C° 0 mm 2 mps 740 mmHg 38%
    09:00 +12°C° 0 mm 2 mps 740 mmHg 36%
    10:00 +13°C° 0 mm 2 mps 740 mmHg 34%
    11:00 +13°C° 0 mm 3 mps 739 mmHg 32%
    12:00 +13°C° 0 mm 3 mps 739 mmHg 30%
    13:00 +13°C° 0 mm 3 mps 739 mmHg 30%
    14:00 +13°C° 0 mm 3 mps 739 mmHg 31%
    15:00 +13°C° 0 mm 3 mps 738 mmHg 31%
    16:00 +12°C° 0 mm 3 mps 739 mmHg 33%
    17:00 +12°C° 0 mm 2 mps 739 mmHg 35%
    18:00 +10°C° 0 mm 2 mps 739 mmHg 37%
    19:00 +10°C° 0 mm 2 mps 739 mmHg 38%
    20:00 +9°C° 0 mm 2 mps 739 mmHg 38%
    21:00 +10°C° 0 mm 1 mps 739 mmHg 38%
    22:00 +10°C° 0 mm 1 mps 739 mmHg 39%
    23:00 +9°C° 0 mm 1 mps 739 mmHg 40%

    19 November, Monday

    Time Temperature Precipitation Wind Pressure Humidity
    00:00 +9°C° 0 mm 1 mps 739 mmHg 41%
    01:00 +9°C° 0 mm 1 mps 739 mmHg 42%
    02:00 +8°C° 0 mm 2 mps 739 mmHg 43%
    03:00 +7°C° 0 mm 2 mps 739 mmHg 44%
    04:00 +7°C° 0 mm 2 mps 739 mmHg 45%
    05:00 +7°C° 0 mm 2 mps 739 mmHg 46%
    06:00 +8°C° 0 mm 1 mps 739 mmHg 47%
    07:00 +9°C° 0 mm 1 mps 739 mmHg 45%
    08:00 +10°C° 0 mm 1 mps 739 mmHg 42%
    09:00 +11°C° 0 mm 1 mps 740 mmHg 40%
    10:00 +12°C° 0 mm 1 mps 740 mmHg 38%
    11:00 +13°C° 0 mm 1 mps 739 mmHg 36%
    12:00 +14°C° 0 mm 2 mps 739 mmHg 35%
    13:00 +14°C° 0 mm 1 mps 739 mmHg 35%
    14:00 +14°C° 0 mm 1 mps 739 mmHg 36%
    15:00 +14°C° 0 mm 1 mps 739 mmHg 36%
    16:00 +13°C° 0 mm 1 mps 739 mmHg 40%
    17:00 +12°C° 0 mm 1 mps 740 mmHg 43%
    18:00 +10°C° 0 mm 1 mps 740 mmHg 46%
    19:00 +10°C° 0 mm 1 mps 740 mmHg 46%
    20:00 +10°C° 0 mm 1 mps 740 mmHg 46%
    21:00 +10°C° 0 mm 1 mps 740 mmHg 46%
    22:00 +9°C° 0 mm 1 mps 740 mmHg 48%
    23:00 +9°C° 0 mm 1 mps 740 mmHg 50%

    20 November, Tuesday

    Time Temperature Precipitation Wind Pressure Humidity
    00:00 +9°C° 0 mm 1 mps 740 mmHg 51%
    01:00 +9°C° 0 mm 1 mps 740 mmHg 53%
    02:00 +9°C° 0 mm 1 mps 740 mmHg 55%
    03:00 +9°C° 0 mm 1 mps 740 mmHg 57%
    04:00 +9°C° 0 mm 1 mps 740 mmHg 56%
    05:00 +8°C° 0 mm 1 mps 740 mmHg 56%
    06:00 +8°C° 0 mm 1 mps 740 mmHg 56%
    07:00 +9°C° 0 mm 1 mps 740 mmHg 53%
    08:00 +11°C° 0 mm 1 mps 740 mmHg 50%
    09:00 +12°C° 0 mm 1 mps 740 mmHg 46%
    10:00 +13°C° 0 mm 1 mps 740 mmHg 45%
    11:00 +13°C° 0 mm 1 mps 740 mmHg 43%
    12:00 +14°C° 0 mm 1 mps 740 mmHg 41%
    13:00 +14°C° 0 mm 1 mps 740 mmHg 42%
    14:00 +14°C° 0 mm 1 mps 740 mmHg 42%
    15:00 +14°C° 0 mm 1 mps 739 mmHg 43%
    16:00 +13°C° 0 mm 1 mps 740 mmHg 46%
    17:00 +12°C° 0 mm 1 mps 740 mmHg 50%
    18:00 +10°C° 0 mm 0 mps 740 mmHg 54%
    19:00 +10°C° 0 mm 0 mps 741 mmHg 54%
    20:00 +10°C° 0 mm 1 mps 741 mmHg 55%
    21:00 +10°C° 0 mm 1 mps 741 mmHg 55%
    22:00 +10°C° 0 mm 1 mps 741 mmHg 56%
    23:00 +10°C° 0 mm 1 mps 741 mmHg 56%

    21 November, Wednesday

    Time Temperature Precipitation Wind Pressure Humidity
    00:00 +10°C° 0 mm 1 mps 741 mmHg 57%
    01:00 +9°C° 0 mm 0 mps 741 mmHg 58%
    02:00 +8°C° 0 mm 0 mps 740 mmHg 60%
    03:00 +8°C° 0 mm 0 mps 740 mmHg 61%
    04:00 +8°C° 0 mm 0 mps 740 mmHg 61%
    05:00 +8°C° 0 mm 0 mps 740 mmHg 62%
    06:00 +8°C° 0 mm 0 mps 740 mmHg 62%
    07:00 +10°C° 0 mm 1 mps 740 mmHg 58%
    08:00 +11°C° 0 mm 1 mps 740 mmHg 54%
    09:00 +12°C° 0 mm 1 mps 740 mmHg 50%
    10:00 +13°C° 0 mm 1 mps 740 mmHg 49%
    11:00 +14°C° 0 mm 1 mps 739 mmHg 47%
    12:00 +15°C° 0 mm 2 mps 738 mmHg 45%
    13:00 +15°C° 0 mm 1 mps 738 mmHg 46%
    14:00 +15°C° 0 mm 1 mps 737 mmHg 46%
    15:00 +15°C° 0 mm 1 mps 737 mmHg 47%
    16:00 +14°C° 0 mm 1 mps 737 mmHg 51%
    17:00 +13°C° 0 mm 1 mps 737 mmHg 55%
    18:00 +11°C° 0 mm 1 mps 737 mmHg 59%
    19:00 +11°C° 0 mm 1 mps 737 mmHg 59%
    20:00 +11°C° 0 mm 1 mps 737 mmHg 59%
    21:00 +11°C° 0 mm 1 mps 736 mmHg 59%
    22:00 +11°C° 0 mm 1 mps 736 mmHg 59%
    23:00 +10°C° 0 mm 1 mps 736 mmHg 59%
    Show more